Location: Im Fang
(46.6019°N, 7.2397°E)
Time: 02:51:37
(UTC+00:00)

Cosmos 1869 Rocket - Pass Details

Date: 08 December 2019
Orbit: 606 x 632 km, 82.5° (Epoch: 19 January)

Event Time Altitude Azimuth Distance (km) Brightness Sun altitude
Rises 05:36:55 0° 200° (SSW) 2,849 7.0 -13.9°
Reaches altitude 10° 05:39:10 10° 205° (SSW) 1,951 6.1 -13.6°
Maximum altitude 05:43:23 53° 283° (WNW) 755 3.6 -12.9°
Drops below altitude 10° 05:47:39 10° 0° (N) 1,973 5.9 -12.2°
Sets 05:49:56 0° 5° (N) 2,886 6.8 -11.8°
